Hourly Weather Canillo

Today, 26 January, Tuesday

Time Temperature Precipitation Wind Pressure Humidity
00:00 -9°C° 0 mm 3 mps 613 mmHg 88%
01:00 -9°C° 0 mm 3 mps 613 mmHg 81%
02:00 -8°C° 0 mm 2 mps 613 mmHg 75%
03:00 -9°C° 0 mm 2 mps 613 mmHg 68%
04:00 -8°C° 0 mm 2 mps 613 mmHg 63%
05:00 -8°C° 0 mm 2 mps 614 mmHg 58%
06:00 -8°C° 0 mm 2 mps 614 mmHg 53%
07:00 -6°C° 0 mm 2 mps 615 mmHg 53%
08:00 -5°C° 0 mm 2 mps 616 mmHg 54%
09:00 -1°C° 0 mm 1 mps 617 mmHg 55%
10:00 0°C° 0 mm 1 mps 618 mmHg 59%
11:00 +2°C° 0 mm 1 mps 618 mmHg 63%
12:00 +3°C° 0 mm 1 mps 619 mmHg 67%
13:00 +3°C° 0 mm 1 mps 619 mmHg 70%
14:00 +3°C° 0 mm 1 mps 618 mmHg 73%
15:00 +3°C° 0 mm 1 mps 618 mmHg 75%
16:00 +2°C° 0 mm 1 mps 617 mmHg 74%
17:00 0°C° 0 mm 1 mps 617 mmHg 73%
18:00 -3°C° 0 mm 2 mps 617 mmHg 73%
19:00 -2°C° 0.1 mm 2 mps 617 mmHg 79%
20:00 -2°C° 0.1 mm 2 mps 617 mmHg 85%
21:00 +1°C° 0.1 mm 1 mps 617 mmHg 91%
22:00 +1°C° 0.2 mm 1 mps 618 mmHg 92%
23:00 +2°C° 0.2 mm 1 mps 618 mmHg 94%

Tomorrow, 27 January, Wednesday

Time Temperature Precipitation Wind Pressure Humidity
00:00 +2°C° 0.2 mm 1 mps 618 mmHg 96%
01:00 +2°C° 0.2 mm 1 mps 618 mmHg 96%
02:00 +2°C° 0.2 mm 1 mps 618 mmHg 97%
03:00 +3°C° 0.2 mm 1 mps 617 mmHg 97%
04:00 +3°C° 0.3 mm 1 mps 617 mmHg 97%
05:00 +2°C° 0.3 mm 1 mps 617 mmHg 96%
06:00 +2°C° 0.3 mm 1 mps 617 mmHg 96%
07:00 +3°C° 0.7 mm 1 mps 618 mmHg 96%
08:00 +2°C° 0.7 mm 2 mps 618 mmHg 96%
09:00 +2°C° 0.7 mm 2 mps 618 mmHg 96%
10:00 +3°C° 0.1 mm 2 mps 619 mmHg 94%
11:00 +3°C° 0.1 mm 2 mps 619 mmHg 92%
12:00 +4°C° 0.1 mm 2 mps 619 mmHg 90%
13:00 +4°C° 0.1 mm 2 mps 619 mmHg 90%
14:00 +4°C° 0.1 mm 2 mps 619 mmHg 91%
15:00 +3°C° 0.1 mm 2 mps 618 mmHg 91%
16:00 +2°C° 0 mm 2 mps 618 mmHg 91%
17:00 +1°C° 0 mm 2 mps 618 mmHg 92%
18:00 -1°C° 0 mm 2 mps 618 mmHg 93%
19:00 -1°C° 0.1 mm 2 mps 618 mmHg 92%
20:00 +1°C° 0.1 mm 2 mps 619 mmHg 92%
21:00 +1°C° 0.1 mm 2 mps 619 mmHg 92%
22:00 +2°C° 0 mm 2 mps 619 mmHg 93%
23:00 +2°C° 0 mm 2 mps 619 mmHg 94%

Day after tomorrow, 28 January, Thursday

Time Temperature Precipitation Wind Pressure Humidity
00:00 +2°C° 0 mm 2 mps 619 mmHg 95%
01:00 +2°C° 0 mm 2 mps 619 mmHg 94%
02:00 +2°C° 0 mm 2 mps 619 mmHg 93%
03:00 +1°C° 0 mm 2 mps 618 mmHg 92%
04:00 +1°C° 0 mm 2 mps 618 mmHg 91%
05:00 +1°C° 0 mm 2 mps 618 mmHg 89%
06:00 +1°C° 0 mm 2 mps 618 mmHg 88%
07:00 +2°C° 0 mm 2 mps 618 mmHg 87%
08:00 +3°C° 0 mm 2 mps 619 mmHg 86%
09:00 +5°C° 0 mm 1 mps 619 mmHg 85%
10:00 +6°C° 0 mm 1 mps 620 mmHg 84%
11:00 +7°C° 0 mm 1 mps 620 mmHg 83%
12:00 +8°C° 0 mm 1 mps 621 mmHg 81%
13:00 +8°C° 0 mm 1 mps 620 mmHg 82%
14:00 +8°C° 0 mm 1 mps 619 mmHg 84%
15:00 +7°C° 0 mm 1 mps 619 mmHg 85%
16:00 +6°C° 0 mm 1 mps 618 mmHg 83%
17:00 +5°C° 0 mm 1 mps 618 mmHg 81%
18:00 +3°C° 0 mm 1 mps 618 mmHg 79%
19:00 +3°C° 0 mm 1 mps 618 mmHg 78%
20:00 +3°C° 0 mm 1 mps 618 mmHg 77%
21:00 +3°C° 0 mm 1 mps 618 mmHg 76%
22:00 +3°C° 0 mm 1 mps 618 mmHg 73%
23:00 +3°C° 0 mm 1 mps 618 mmHg 70%

29 January, Friday

Time Temperature Precipitation Wind Pressure Humidity
00:00 +3°C° 0 mm 1 mps 617 mmHg 67%
01:00 +3°C° 0 mm 1 mps 617 mmHg 68%
02:00 +3°C° 0 mm 1 mps 617 mmHg 68%
03:00 +2°C° 0 mm 1 mps 616 mmHg 68%
04:00 +2°C° 0 mm 1 mps 616 mmHg 69%
05:00 +2°C° 0 mm 1 mps 616 mmHg 70%
06:00 +2°C° 0 mm 1 mps 616 mmHg 71%
07:00 +3°C° 0 mm 1 mps 616 mmHg 72%
08:00 +4°C° 0 mm 1 mps 616 mmHg 72%
09:00 +5°C° 0 mm 1 mps 616 mmHg 73%
10:00 +6°C° 0 mm 1 mps 616 mmHg 75%
11:00 +6°C° 0 mm 2 mps 617 mmHg 77%
12:00 +7°C° 0 mm 2 mps 617 mmHg 79%
13:00 +6°C° 0 mm 2 mps 616 mmHg 82%
14:00 +6°C° 0 mm 2 mps 616 mmHg 84%
15:00 +5°C° 0 mm 2 mps 615 mmHg 87%
16:00 +4°C° 0.2 mm 2 mps 615 mmHg 90%
17:00 +3°C° 0.2 mm 2 mps 615 mmHg 92%
18:00 +2°C° 0.2 mm 2 mps 615 mmHg 95%
19:00 +2°C° 0 mm 2 mps 615 mmHg 94%
20:00 +3°C° 0 mm 1 mps 614 mmHg 93%
21:00 +2°C° 0 mm 1 mps 614 mmHg 93%
22:00 +2°C° 0 mm 1 mps 614 mmHg 91%
23:00 +2°C° 0 mm 1 mps 614 mmHg 89%

30 January, Saturday

Time Temperature Precipitation Wind Pressure Humidity
00:00 +2°C° 0 mm 1 mps 613 mmHg 88%
01:00 +1°C° 0 mm 2 mps 613 mmHg 88%
02:00 +1°C° 0 mm 2 mps 612 mmHg 89%
03:00 +2°C° 0 mm 2 mps 611 mmHg 90%
04:00 +2°C° 0.6 mm 2 mps 610 mmHg 92%
05:00 +2°C° 0.6 mm 2 mps 610 mmHg 94%
06:00 +2°C° 0.6 mm 2 mps 609 mmHg 96%
07:00 +2°C° 0.8 mm 2 mps 609 mmHg 96%
08:00 +3°C° 0.8 mm 1 mps 609 mmHg 96%
09:00 +3°C° 0.8 mm 1 mps 609 mmHg 97%
10:00 +3°C° 0.4 mm 1 mps 609 mmHg 95%
11:00 +3°C° 0.4 mm 1 mps 608 mmHg 94%
12:00 +2°C° 0.4 mm 2 mps 608 mmHg 93%
13:00 +2°C° 0.2 mm 2 mps 609 mmHg 92%
14:00 +3°C° 0.2 mm 2 mps 609 mmHg 90%
15:00 +2°C° 0.2 mm 3 mps 609 mmHg 89%
16:00 +1°C° 0.2 mm 3 mps 610 mmHg 91%
17:00 +1°C° 0.2 mm 3 mps 610 mmHg 93%
18:00 +1°C° 0.2 mm 3 mps 610 mmHg 95%
19:00 0°C° 0.2 mm 3 mps 611 mmHg 95%
20:00 0°C° 0.2 mm 3 mps 611 mmHg 95%
21:00 0°C° 0.2 mm 3 mps 611 mmHg 95%
22:00 0°C° 0 mm 3 mps 612 mmHg 94%
23:00 0°C° 0 mm 3 mps 612 mmHg 94%

31 January, Sunday

Time Temperature Precipitation Wind Pressure Humidity
00:00 0°C° 0 mm 3 mps 612 mmHg 93%
01:00 -1°C° 0 mm 2 mps 612 mmHg 93%
02:00 -1°C° 0 mm 2 mps 612 mmHg 93%
03:00 -1°C° 0 mm 2 mps 612 mmHg 93%
04:00 -2°C° 0 mm 2 mps 612 mmHg 86%
05:00 -2°C° 0 mm 2 mps 612 mmHg 79%
06:00 -2°C° 0 mm 2 mps 612 mmHg 72%
07:00 +1°C° 0 mm 2 mps 613 mmHg 74%
08:00 +3°C° 0 mm 1 mps 613 mmHg 76%
09:00 +5°C° 0 mm 1 mps 614 mmHg 77%
10:00 +6°C° 0 mm 1 mps 614 mmHg 77%
11:00 +7°C° 0 mm 1 mps 614 mmHg 77%
12:00 +8°C° 0 mm 1 mps 614 mmHg 77%
13:00 +7°C° 0 mm 1 mps 613 mmHg 79%
14:00 +7°C° 0 mm 1 mps 613 mmHg 82%
15:00 +6°C° 0 mm 2 mps 612 mmHg 85%
16:00 +6°C° 0.3 mm 1 mps 612 mmHg 88%
17:00 +4°C° 0.3 mm 1 mps 611 mmHg 92%
18:00 +3°C° 0.3 mm 1 mps 611 mmHg 95%
19:00 +2°C° 0.6 mm 2 mps 611 mmHg 95%
20:00 +1°C° 0.6 mm 2 mps 611 mmHg 95%
21:00 +1°C° 0.6 mm 2 mps 612 mmHg 95%
22:00 -1°C° 0.2 mm 3 mps 612 mmHg 94%
23:00 -1°C° 0.2 mm 3 mps 612 mmHg 93%
Show more